TimeEST,TemperatureF,Dew PointF,Humidity,Sea Level PressureIn,VisibilityMPH,Wind Direction,Wind SpeedMPH,Gust SpeedMPH,PrecipitationIn,Events,Conditions,WindDirDegrees,DateUTC
12:53 AM,25.0,21.0,85,30.25,9.0,Calm,Calm,-,N/A,,Clear,0,2012-11-20 05:53:00
1:53 AM,25.0,21.0,85,30.24,9.0,Calm,Calm,-,N/A,,Clear,0,2012-11-20 06:53:00
2:53 AM,25.0,21.9,88,30.23,7.0,Calm,Calm,-,N/A,,Clear,0,2012-11-20 07:53:00
3:53 AM,24.1,21.0,88,30.22,9.0,Calm,Calm,-,N/A,,Clear,0,2012-11-20 08:53:00
4:53 AM,25.0,21.0,85,30.22,9.0,Calm,Calm,-,N/A,,Clear,0,2012-11-20 09:53:00
5:53 AM,25.0,21.9,88,30.22,10.0,Calm,Calm,-,N/A,,Clear,0,2012-11-20 10:53:00
6:53 AM,24.1,19.9,84,30.22,8.0,Calm,Calm,-,N/A,,Clear,0,2012-11-20 11:53:00
7:53 AM,25.0,21.9,88,30.22,10.0,Calm,Calm,-,N/A,,Clear,0,2012-11-20 12:53:00
8:53 AM,30.9,26.1,82,30.22,8.0,Calm,Calm,-,N/A,,Clear,0,2012-11-20 13:53:00
9:53 AM,35.1,28.0,76,30.21,10.0,Calm,Calm,-,N/A,,Clear,0,2012-11-20 14:53:00
10:53 AM,39.9,28.0,63,30.19,10.0,Calm,Calm,-,N/A,,Clear,0,2012-11-20 15:53:00
11:53 AM,41.0,28.9,62,30.17,10.0,Calm,Calm,-,N/A,,Clear,0,2012-11-20 16:53:00
12:53 PM,44.1,28.9,55,30.14,10.0,Calm,Calm,-,0.00,Rain,Light Rain,0,2012-11-20 17:53:00
12:56 PM,44.6,28.4,53,30.15,10.0,Calm,Calm,-,0.00,,Clear,0,2012-11-20 17:56:00
1:53 PM,46.9,28.9,50,30.13,10.0,Calm,Calm,-,0.00,,Clear,0,2012-11-20 18:53:00
2:53 PM,46.9,28.9,50,30.12,10.0,Calm,Calm,-,N/A,,Clear,0,2012-11-20 19:53:00
3:53 PM,46.0,28.9,51,30.13,10.0,Calm,Calm,-,N/A,,Clear,0,2012-11-20 20:53:00
4:53 PM,42.1,30.0,62,30.12,10.0,Calm,Calm,-,N/A,,Clear,0,2012-11-20 21:53:00
5:53 PM,37.9,28.9,70,30.14,10.0,Calm,Calm,-,N/A,,Clear,0,2012-11-20 22:53:00
6:53 PM,34.0,28.0,79,30.15,10.0,Calm,Calm,-,N/A,,Clear,0,2012-11-20 23:53:00
7:53 PM,32.0,26.1,79,30.15,10.0,Calm,Calm,-,N/A,,Clear,0,2012-11-21 00:53:00
8:53 PM,30.9,27.0,85,30.15,10.0,Calm,Calm,-,N/A,,Clear,0,2012-11-21 01:53:00
9:53 PM,30.0,26.1,85,30.15,9.0,Calm,Calm,-,N/A,,Clear,0,2012-11-21 02:53:00
10:53 PM,28.9,25.0,85,30.16,9.0,Calm,Calm,-,N/A,,Clear,0,2012-11-21 03:53:00
11:53 PM,28.0,25.0,88,30.17,10.0,Calm,Calm,-,N/A,,Clear,0,2012-11-21 04:53:00